This demonstration page uses our WeatherBlox Daily Observations layout. Learn more.

40.92945, -100.16068

Hourly Observations for March 20, 2018

Temp ( °F °C ) Dew Point ( °F °C ) Humidity (%) Winds ( mph kmh ) Pressure ( in mb ) Visibility ( mi km ) Precip ( " mm )
12:15 am 00:15 Cloudy 33 0.6 30 -1 89 89 NW 8 13 30.15 1021 10 16.0934 0 0
12:35 am 00:35 Cloudy 33 0.8 30 -1 88 88 NNW 9 15 30.15 1021 10 16.0934 0 0
12:55 am 00:55 Cloudy 32 0.2 29 -1.6 88 88 NW 12 19 30.15 1021 10 16.0934 0 0
1:15 am 01:15 Cloudy 32 0 29 -1.6 89 89 NW 10 17 30.15 1021 10 16.0934 0 0
1:35 am 01:35 Cloudy 32 0.1 29 -1.6 88 88 NW 10 17 30.15 1021 10 16.0934 0 0
1:55 am 01:55 Cloudy 32 0 28 -2 87 87 NW 14 22 30.15 1021 10 16.0934 0 0
2:15 am 02:15 Mostly Cloudy 32 -0.2 28 -2.5 85 85 NW 12 19 30.15 1021 10 16.0934 0 0
2:35 am 02:35 Mostly Cloudy 32 -0.1 28 -2.5 84 84 NNW 12 19 30.15 1021 10 16.0934 0 0
2:55 am 02:55 Cloudy 32 -0.1 28 -2.5 84 84 NNW 12 19 30.15 1021 10 16.0934 0 0
3:15 am 03:15 Cloudy 32 0 28 -2.3 85 85 NNW 15 24 30.15 1021 10 16.0934 0 0
3:35 am 03:35 Cloudy 32 0 28 -2.5 83 83 NNW 12 19 30.15 1021 10 16.0934 0 0
3:55 am 03:55 Cloudy 32 0 27 -2.6 83 83 NNW 14 22 30.15 1021 10 16.0934 0 0
4:15 am 04:15 Cloudy 32 0 28 -2.5 83 83 NNW 10 17 30.15 1021 10 16.0934 0 0
4:35 am 04:35 Cloudy 32 0 27 -2.8 82 82 NNW 14 22 30.15 1021 10 16.0934 0 0
4:55 am 04:55 Cloudy 32 0.1 27 -2.7 82 82 NNW 14 22 30.15 1021 10 16.0934 0 0
5:15 am 05:15 Cloudy 32 0 27 -2.7 82 82 NW 10 17 30.15 1021 10 16.0934 0 0
5:35 am 05:35 Cloudy 32 0.1 27 -2.6 82 82 NNW 13 20 30.15 1021 10 16.0934 0 0
5:55 am 05:55 Cloudy 32 0.2 27 -2.7 81 81 NNW 12 19 30.15 1021 10 16.0934 0 0
6:15 am 06:15 Cloudy 33 0.3 27 -2.8 80 80 NNW 9 15 30.15 1021 10 16.0934 0 0
6:35 am 06:35 Cloudy 33 0.3 27 -2.7 81 81 NNW 10 17 30.15 1021 10 16.0934 0 0
6:55 am 06:55 Cloudy 32 0.1 27 -2.7 82 82 NNW 10 17 30.15 1021 10 16.0934 0 0
7:15 am 07:15 Cloudy 32 0 27 -2.7 82 82 NNW 9 15 30.15 1021 10 16.0934 0 0
7:35 am 07:35 Cloudy 32 0 27 -2.9 81 81 NNW 13 20 30.15 1021 10 16.0934 0 0
7:55 am 07:55 Mostly Cloudy 31 -0.7 26 -3.6 81 81 NNW 8 13 30.15 1021 10 16.0934 0 0
8:15 am 08:15 Partly Cloudy 30 -1 25 -3.8 82 82 NNW 8 13 30.15 1021 10 16.0934 0 0
8:35 am 08:35 Sunny 31 -0.8 26 -3.5 82 82 NNW 8 13 30.15 1021 10 16.0934 0 0
8:55 am 08:55 Sunny 32 -0.2 27 -3 82 82 NNW 6 9 30.15 1021 10 16.0934 0 0
9:15 am 09:15 Sunny 32 0 27 -2.9 81 81 NW 6 9 30.15 1021 10 16.0934 0 0
9:35 am 09:35 Sunny 33 0.3 27 -2.6 81 81 WNW 5 7 30.15 1021 10 16.0934 0 0
9:55 am 09:55 Sunny 33 0.4 28 -2.4 82 82 NW 5 7 30.15 1021 10 16.0934 0 0
10:15 am 10:15 Partly Cloudy 34 1 28 -2.5 78 78 N 7 11 30.12 1020 10 16.0934 0 0
10:35 am 10:35 Partly Cloudy 35 1.4 27 -2.6 75 75 NNW 6 9 30.12 1020 10 16.0934 0 0
10:55 am 10:55 Partly Cloudy 35 1.7 28 -2.4 75 75 NNW 6 9 30.12 1020 10 16.0934 0 0
11:15 am 11:15 Sunny 36 2.2 28 -2.2 73 73 NNW 8 13 30.12 1020 10 16.0934 0 0
11:35 am 11:35 Sunny 37 2.6 28 -2.1 71 71 NNW 7 11 30.12 1020 10 16.0934 0 0
11:55 am 11:55 Mostly Cloudy 36 2.3 29 -1.9 74 74 Calm 30.12 1020 10 16.0934 0 0
12:15 pm 12:15 Cloudy 37 2.7 30 -1.2 76 76 E 6 9 30.12 1020 10 16.0934 0 0
12:35 pm 12:35 Cloudy 37 2.8 29 -1.5 74 74 E 5 7 30.12 1020 10 16.0934 0 0
12:55 pm 12:55 Cloudy 37 3 30 -1.1 75 75 E 6 9 30.09 1019 10 16.0934 0 0
1:15 pm 13:15 Cloudy 37 2.9 30 -1.3 74 74 E 5 7 30.09 1019 10 16.0934 0 0
1:35 pm 13:35 Mostly Cloudy 38 3.6 30 -1.1 72 72 E 5 7 30.09 1019 10 16.0934 0 0
1:55 pm 13:55 Mostly Cloudy 40 4.4 31 -0.3 72 72 ESE 6 9 30.06 1018 10 16.0934 0 0
2:15 pm 14:15 Mostly Cloudy 40 4.7 32 -0.1 71 71 ESE 5 7 30.06 1018 10 16.0934 0 0
2:35 pm 14:35 Mostly Cloudy 41 4.9 33 0.4 73 73 SE 8 13 30.06 1018 10 16.0934 0 0
2:55 pm 14:55 Partly Cloudy 41 5.2 32 0.1 70 70 SE 5 7 30.03 1017 10 16.0934 0 0
3:15 pm 15:15 Partly Cloudy 42 5.5 33 0.5 71 71 SE 10 17 30.03 1017 10 16.0934 0 0
3:35 pm 15:35 Partly Cloudy 43 6 33 0.7 69 69 SSE 8 13 30.03 1017 10 16.0934 0 0
3:55 pm 15:55 Partly Cloudy 43 6.3 33 0.8 68 68 SE 7 11 30.03 1017 10 16.0934 0 0
4:15 pm 16:15 Sunny 44 6.5 33 0.8 67 67 SE 7 11 30 1016 10 16.0934 0 0
4:35 pm 16:35 Sunny 45 7 33 0.8 65 65 ESE 7 11 29.97 1015 10 16.0934 0 0
4:55 pm 16:55 Partly Cloudy 44 6.5 33 0.7 67 67 SE 6 9 29.97 1015 10 16.0934 0 0
5:15 pm 17:15 Mostly Cloudy with Rain 43 6.3 33 0.8 68 68 SSW 7 11 30.03 1017 10 16.0934 0 0
5:35 pm 17:35 Cloudy with Light Drizzle 41 4.8 35 1.4 79 79 S 6 9 30.03 1017 10 16.0934 0.02 0.508
5:55 pm 17:55 Cloudy with Rain 41 5 34 1.2 77 77 NNW 6 9 30.06 1018 5 8.0467 0.04 1.016
6:15 pm 18:15 Cloudy with Light Rain 42 5.3 35 1.8 78 78 E 6 9 30.03 1017 10 16.0934 0.01 0.254
6:35 pm 18:35 Partly Cloudy 41 5.1 35 1.8 79 79 NE 3 6 30.06 1018 10 16.0934 0.01 0.254
6:55 pm 18:55 Mostly Cloudy 41 5 36 2 81 81 ENE 5 7 30.06 1018 10 16.0934 0.01 0.254
7:15 pm 19:15 Mostly Cloudy 41 5.1 36 2.1 81 81 Calm 30.06 1018 10 16.0934 0 0
7:35 pm 19:35 Partly Cloudy 41 5 36 2.1 82 82 NNE 3 6 30.06 1018 10 16.0934 0 0
7:55 pm 19:55 Clear 40 4.3 35 1.5 82 82 Calm 30.06 1018 10 16.0934 0 0
8:15 pm 20:15 Clear 39 3.7 34 1.2 84 84 Calm 30.06 1018 10 16.0934 0 0
8:35 pm 20:35 Partly Cloudy 37 2.7 34 1.2 90 90 SW 3 6 30.09 1019 10 16.0934 0 0
8:55 pm 20:55 Clear 37 2.5 34 1 90 90 Calm 30.09 1019 10 16.0934 0 0
9:15 pm 21:15 Clear 36 2.1 33 0.4 89 89 WSW 3 6 30.09 1019 10 16.0934 0 0
9:35 pm 21:35 Clear 34 1.3 32 0 91 91 SW 6 9 30.12 1020 10 16.0934 0 0
9:55 pm 21:55 Clear 34 0.9 32 -0.1 93 93 WSW 3 6 30.15 1021 7 11.26538 0 0
10:15 pm 22:15 Clear 34 0.9 32 0 94 94 WNW 3 6 30.15 1021 10 16.0934 0 0
10:35 pm 22:35 Clear 32 0 30 -0.9 94 94 NW 3 6 30.15 1021 10 16.0934 0 0
10:55 pm 22:55 Clear 32 0 30 -1 93 93 NNW 3 6 30.15 1021 10 16.0934 0 0
11:15 pm 23:15 Clear 31 -0.4 29 -1.4 93 93 NW 5 7 30.15 1021 10 16.0934 0 0
11:35 pm 23:35 Clear 31 -0.5 29 -1.5 93 93 NNW 3 6 30.15 1021 10 16.0934 0 0
11:55 pm 23:55 Clear 31 -0.5 29 -1.4 94 94 NW 5 7 30.15 1021 10 16.0934 0 0

Powered by AerisWeather